Waukesha, WI

2:29 PM CST on December 05, 2019 (GMT -0600)
Waukesha County

Weather History for KUES - October, 2019

Change the Weather History Date:

Tuesday, October 22, 2019

  Actual Average Record
Temperature  
Mean Temperature 44 °F -  
Max Temperature 48 °F 58 °F 82 °F (1953)
Min Temperature 41 °F 39 °F 1 °F (1998)
Degree Days  
Heating Degree Days 20    
Moisture  
Dew Point 37 °F    
Average Humidity 74    
Maximum Humidity 93    
Minimum Humidity 61    
Precipitation  
Precipitation 0.00 in - - ()
Sea Level Pressure  
Sea Level Pressure 29.50 in    
Wind  
Wind Speed 14 mph (SW)    
Max Wind Speed 21 mph    
Max Gust Speed 33 mph    
Visibility 10 miles    
Events Rain    
Averages and records for this station are not official NWS values.
T = Trace of Precipitation, MM = Missing Value Source: NWS Daily Summary

Daily Weather History Graph

Daily Weather History Graph

Search for Another Location

Airport or City:

Astronomy

Oct. 22, 2019 Rise Set
Actual Time 7:14 AM CDT 5:59 PM CDT
Civil Twilight 6:45 AM CDT 6:28 PM CDT
Nautical Twilight 6:12 AM CDT 7:01 PM CDT
Astronomical Twilight 5:39 AM CDT 7:34 PM CDT
Moon 12:11 AM CDT (10/22) 3:20 PM CDT (10/22)
Length of Visible Light 11h 42m
Length of Day
10h 44m
Last Quarter, 37% of the Moon is Illuminated
Oct 22
Last Quarter
Oct 27
New
Nov 4
First Quarter
Nov 12
Full
Nov 19
Last Quarter

Hourly Weather History & Observations

Time (CDT) Temp. Windchill Dew Point Humidity Pressure Visibility Wind Dir Wind Speed Gust Speed Precip Events Conditions
12:15 AM 48.2 °F - 37.4 °F 66% 29.42 in 10.0 mi South 12.7 mph 23.0 mph N/A   Scattered Clouds
12:35 AM 48.2 °F - 37.4 °F 66% 29.42 in 10.0 mi South 9.2 mph 19.6 mph N/A   Mostly Cloudy
12:55 AM 48.2 °F - 37.4 °F 66% 29.42 in 10.0 mi South 10.4 mph 23.0 mph N/A   Overcast
1:35 AM 48.2 °F - 37.4 °F 66% 29.40 in 10.0 mi South 10.4 mph 20.7 mph N/A   Overcast
1:55 AM 46.4 °F 40.4 °F 37.4 °F 71% 29.39 in 10.0 mi South 13.8 mph 19.6 mph N/A   Overcast
2:15 AM 48.2 °F - 37.4 °F 66% 29.38 in 10.0 mi South 12.7 mph 21.9 mph N/A   Overcast
2:35 AM 44.6 °F 38.4 °F 41.0 °F 87% 29.40 in 7.0 mi SW 12.7 mph 33.4 mph N/A Rain Light Rain
2:55 AM 44.6 °F 37.8 °F 41.0 °F 87% 29.40 in 10.0 mi SSW 15.0 mph 21.9 mph N/A   Overcast
3:15 AM 44.6 °F 38.8 °F 39.2 °F 81% 29.39 in 10.0 mi SSW 11.5 mph 21.9 mph N/A   Overcast
3:35 AM 44.6 °F 37.8 °F 37.4 °F 76% 29.38 in 10.0 mi SSW 15.0 mph 25.3 mph N/A   Overcast
3:55 AM 44.6 °F 38.1 °F 37.4 °F 76% 29.37 in 10.0 mi SSW 13.8 mph 27.6 mph N/A   Overcast
4:15 AM 44.6 °F 38.1 °F 37.4 °F 76% 29.36 in 10.0 mi South 13.8 mph 19.6 mph N/A   Overcast
4:35 AM 44.6 °F 37.4 °F 37.4 °F 76% 29.36 in 10.0 mi SSW 16.1 mph 26.5 mph N/A   Overcast
4:55 AM 44.6 °F 37.2 °F 37.4 °F 76% 29.36 in 10.0 mi SSW 17.3 mph 29.9 mph N/A   Overcast
5:15 AM 44.6 °F 38.4 °F 39.2 °F 81% 29.36 in 10.0 mi SSW 12.7 mph 23.0 mph N/A   Overcast
5:35 AM 44.6 °F 37.4 °F 39.2 °F 81% 29.35 in 10.0 mi SSW 16.1 mph 25.3 mph N/A   Overcast
5:45 AM 44.6 °F 37.2 °F 39.2 °F 81% 29.35 in 10.0 mi SSW 17.3 mph 28.8 mph N/A   Overcast
6:45 AM 44.6 °F 37.8 °F 39.2 °F 81% 29.36 in 10.0 mi SSW 15.0 mph 31.1 mph N/A   Overcast
7:45 AM 44.6 °F 37.4 °F 37.4 °F 76% 29.37 in 10.0 mi WSW 16.1 mph 31.1 mph N/A   Overcast
8:45 AM 44.6 °F 36.9 °F 37.4 °F 76% 29.40 in 10.0 mi SW 18.4 mph 28.8 mph N/A   Overcast
9:45 AM 44.6 °F 37.4 °F 39.2 °F 81% 29.43 in 4.0 mi SW 16.1 mph 28.8 mph N/A   Haze
10:45 AM 44.6 °F 37.2 °F 39.2 °F 81% 29.46 in 10.0 mi WSW 17.3 mph 24.2 mph N/A   Overcast
11:45 AM 44.6 °F 38.4 °F 37.4 °F 76% 29.49 in 10.0 mi WSW 12.7 mph 29.9 mph N/A   Overcast
12:45 PM 44.6 °F 36.6 °F 37.4 °F 76% 29.50 in 10.0 mi WSW 19.6 mph 26.5 mph N/A   Overcast
1:45 PM 44.6 °F 36.6 °F 35.6 °F 71% 29.52 in 10.0 mi WSW 19.6 mph 29.9 mph N/A   Overcast
2:45 PM 44.6 °F 36.4 °F 35.6 °F 71% 29.55 in 10.0 mi SW 20.7 mph 27.6 mph N/A   Overcast
3:45 PM 42.8 °F 35.4 °F 37.4 °F 81% 29.58 in 10.0 mi WSW 15.0 mph 20.7 mph N/A   Overcast
4:45 PM 44.6 °F 38.1 °F 35.6 °F 71% 29.60 in 10.0 mi WSW 13.8 mph 27.6 mph N/A   Overcast
5:08 PM 42.8 °F 36.6 °F 37.4 °F 81% 29.61 in 7.0 mi SW 11.5 mph 19.6 mph N/A Rain Light Rain
5:45 PM 41.0 °F 33.5 °F 39.2 °F 93% 29.63 in 10.0 mi SW 13.8 mph 23.0 mph N/A   Overcast
6:45 PM 42.8 °F 37.5 °F 37.4 °F 81% 29.65 in 10.0 mi SW 9.2 mph - N/A   Overcast
7:45 PM 44.6 °F 39.2 °F 37.4 °F 76% 29.66 in 10.0 mi WSW 10.4 mph - N/A   Overcast
8:45 PM 44.6 °F 37.8 °F 35.6 °F 71% 29.67 in 10.0 mi WSW 15.0 mph 21.9 mph N/A   Overcast
9:15 PM 44.6 °F 38.1 °F 33.8 °F 66% 29.68 in 10.0 mi WSW 13.8 mph 23.0 mph N/A   Overcast
9:35 PM 44.6 °F 37.8 °F 33.8 °F 66% 29.68 in 10.0 mi SW 15.0 mph 23.0 mph N/A   Overcast
9:55 PM 44.6 °F 37.4 °F 32.0 °F 61% 29.68 in 10.0 mi WSW 16.1 mph 24.2 mph N/A   Overcast
10:15 PM 44.6 °F 36.9 °F 32.0 °F 61% 29.69 in 10.0 mi WSW 18.4 mph 25.3 mph N/A   Overcast
10:35 PM 44.6 °F 38.1 °F 32.0 °F 61% 29.69 in 10.0 mi WSW 13.8 mph 26.5 mph N/A   Overcast
10:55 PM 42.8 °F 36.2 °F 32.0 °F 66% 29.70 in 10.0 mi WSW 12.7 mph 18.4 mph N/A   Scattered Clouds
11:35 PM 42.8 °F 35.4 °F 32.0 °F 66% 29.70 in 10.0 mi WSW 15.0 mph 24.2 mph N/A   Mostly Cloudy
11:55 PM 42.8 °F 36.6 °F 30.2 °F 61% 29.71 in 10.0 mi WSW 11.5 mph 18.4 mph N/A   Mostly Cloudy